{"data":{"norad_id":64373,"intl_designator":"2025-127D","name":"STARLINK-11748 [DTC]","alt_names":[],"object_type":"PAYLOAD","status":"ACTIVE","operator":null,"country":"US","launch_date":"2025-06-13","launch_site_code":"AFETR","launch_vehicle":null,"mission":null,"orbit_class":"UNKNOWN","rcs_meters":null,"size_class":null,"mass_kg":null,"dimensions":null,"purposes":["comms"],"wikipedia_slug":null,"has_3d_model":false,"image_url":null,"decayed_at":null,"tle_current":{"epoch":"2026-09-20T22:19:06.790944Z","epoch_age_seconds":97317,"freshness":"FRESH","line1":"1 64373U 25127D   26263.92993971  .00174129  00000+0  13291-2 0  9999","line2":"2 64373  42.9981 348.1371 0001909 297.2764  62.7909 15.70897534 74206","mean_motion":15.70897534,"eccentricity":0.0001909,"inclination_deg":42.9981,"raan_deg":348.1371,"arg_perigee_deg":297.2764,"mean_anomaly_deg":62.7909,"bstar":0.0013291,"rev_number":7420,"period_min":91.667341047592,"perigee_km":355.04501377848,"apogee_km":357.61623351719,"semimajor_km":6734.4676236478,"source":"CELESTRAK","updated_at":"2026-09-21T09:00:35.322153Z"}}}